TimeMDT,TemperatureF,Dew PointF,Humidity,Sea Level PressureIn,VisibilityMPH,Wind Direction,Wind SpeedMPH,Gust SpeedMPH,PrecipitationIn,Events,Conditions,WindDirDegrees,DateUTC
12:53 AM,45.0,36.0,71,30.10,10.0,Calm,Calm,-,N/A,,Mostly Cloudy,0,2013-10-15 06:53:00
1:53 AM,42.1,39.9,92,30.12,10.0,Calm,Calm,-,N/A,,Mostly Cloudy,0,2013-10-15 07:53:00
2:53 AM,42.1,35.1,76,30.12,10.0,NE,6.9,-,N/A,,Mostly Cloudy,50,2013-10-15 08:53:00
3:53 AM,44.1,34.0,68,30.10,10.0,NNE,8.1,-,N/A,,Mostly Cloudy,20,2013-10-15 09:53:00
4:53 AM,43.0,32.0,65,30.11,10.0,Variable,4.6,-,N/A,,Overcast,0,2013-10-15 10:53:00
5:53 AM,42.1,32.0,67,30.12,10.0,North,8.1,-,N/A,,Overcast,10,2013-10-15 11:53:00
6:53 AM,42.1,32.0,67,30.13,10.0,North,6.9,-,N/A,,Mostly Cloudy,360,2013-10-15 12:53:00
7:53 AM,42.1,30.9,65,30.12,10.0,Calm,Calm,-,N/A,,Scattered Clouds,0,2013-10-15 13:53:00
8:53 AM,39.9,35.1,83,30.15,10.0,SSW,3.5,-,N/A,,Scattered Clouds,210,2013-10-15 14:53:00
9:53 AM,46.0,32.0,58,30.14,10.0,Variable,3.5,-,N/A,,Scattered Clouds,0,2013-10-15 15:53:00
10:53 AM,46.9,32.0,56,30.13,10.0,Calm,Calm,-,N/A,,Mostly Cloudy,0,2013-10-15 16:53:00
11:53 AM,48.9,34.0,56,30.12,10.0,NE,10.4,-,N/A,,Mostly Cloudy,40,2013-10-15 17:53:00
12:53 PM,50.0,32.0,50,30.09,10.0,SE,5.8,-,N/A,,Mostly Cloudy,130,2013-10-15 18:53:00
1:53 PM,51.1,32.0,48,30.06,10.0,North,8.1,-,N/A,,Mostly Cloudy,350,2013-10-15 19:53:00
2:53 PM,50.0,30.9,48,30.06,10.0,Calm,Calm,-,N/A,,Overcast,0,2013-10-15 20:53:00
3:53 PM,48.9,32.0,52,30.06,10.0,West,4.6,16.1,N/A,,Mostly Cloudy,270,2013-10-15 21:53:00
4:53 PM,46.0,37.9,73,30.07,10.0,SW,15.0,-,0.00,,Mostly Cloudy,230,2013-10-15 22:53:00
5:53 PM,44.1,37.9,79,30.09,10.0,Calm,Calm,-,N/A,,Clear,0,2013-10-15 23:53:00
6:53 PM,42.1,37.9,85,30.11,10.0,North,5.8,-,N/A,,Mostly Cloudy,10,2013-10-16 00:53:00
7:53 PM,42.1,30.0,62,30.12,10.0,North,5.8,-,N/A,,Clear,10,2013-10-16 01:53:00
8:53 PM,42.1,30.0,62,30.13,10.0,West,4.6,-,N/A,,Mostly Cloudy,260,2013-10-16 02:53:00
9:53 PM,37.0,32.0,82,30.13,10.0,NW,5.8,-,N/A,,Clear,310,2013-10-16 03:53:00
10:53 PM,36.0,30.9,82,30.12,10.0,Calm,Calm,-,N/A,,Clear,0,2013-10-16 04:53:00
11:53 PM,36.0,28.9,76,30.13,10.0,NNW,4.6,-,N/A,,Partly Cloudy,340,2013-10-16 05:53:00